Simultaneous Nadir Overpasses (SNOs) Predictions

Prediction of SNOs between LANDSAT-8 and METOP-A Satellite Orbit:

Table of predicted SNOs for the next 14.0 days since TLE Epoch: 5/4/2019
Index Date (LANDSAT-8) Time (LANDSAT-8) Lat,Lon (LANDSAT-8) SZA (LANDSAT-8 ) Date (METOP-A) Time (METOP-A) Lat,Lon (METOP-A) SZA (METOP-A ) Distance(km) Time Diff (sec)
1 05/05/2019 14:12:19 -81.47,-166.88 112.01 05/05/2019 14:11:12 -81.46,-166.92 112.05 0.93 67
2 05/05/2019 15:01:46 81.46, 0.46 67.94 05/05/2019 15:01:52 81.46, 0.55 67.96 1.62 6
3 05/08/2019 09:46:37 -81.47,-100.41 112.78 05/08/2019 09:45:25 -81.46,-100.37 112.81 1.07 72
4 05/08/2019 10:36:04 81.46, 66.90 67.17 05/08/2019 10:36:05 81.47, 67.08 67.19 2.99 1
5 05/08/2019 11:25:16 -81.67,-119.43 112.02 05/08/2019 11:26:30 -81.43,-119.19 112.09 28.00 74
6 05/11/2019 06:10:21 81.47, 133.60 66.47 05/11/2019 06:10:17 81.47, 133.59 66.46 0.48 4
7 05/11/2019 06:59:48 -81.47, -58.74 113.54 05/11/2019 07:00:57 -81.47, -58.63 113.50 1.86 69
8 05/14/2019 01:44:41 81.46,-160.24 65.73 05/14/2019 01:44:31 81.46,-160.31 65.73 1.36 10
9 05/14/2019 02:34:08 -81.46, 7.45 114.27 05/14/2019 02:35:11 -81.47, 7.48 114.23 0.76 63
10 05/16/2019 21:19:01 81.46, -93.82 65.07 05/16/2019 21:18:44 81.46, -93.82 65.07 0.78 17




NCC Satellite Simultaneous Nadir Overpasses (SNOs) Prediction Service
